AFR305 LFPG-GOBD

Flight info

Callsign AFR305
Flight time 5h 39m
Altitude 35000
Route AGOPA DCT ARKIP DCT ARMAL DCT ARTAX DCT BEBIX DCT LMG DCT UVELI DCT OSMOB DCT VAVIX DCT NETUK N857 GARVU N10 BANEV/N0484F370 N857 BAN N10 CJN L27 NASOS N869 MGA M985 PIMOS N869 GALTO UN869 ADM UR975 DIDAN/N0485F380 UR975 SAKLI SAKLI1A
Aircraft B77W/H-SDE1E2E3FGHIJ2J3J4J5M1RWXY/LB1D1

Departure

Time 2026-05-09 06:52
Airport Charles de Gaulle International Airport (LFPG)

Arrival

Time 2026-05-09 12:32
Airport Blaise Diagne International Airport (GOBD)
Time Latitude Longitude Altitude Speed Heading
2026-05-09 06:18 49.00117 2.57527 364 ft 0 kts 359°
2026-05-09 06:40 49.00104 2.57527 359 ft 4 kts 359°
2026-05-09 06:40 49.00077 2.57529 359 ft 4 kts 350°
2026-05-09 06:41 49.00055 2.57541 363 ft 4 kts 300°
2026-05-09 06:41 49.00053 2.57572 363 ft 4 kts 265°
2026-05-09 06:41 49.00055 2.57612 362 ft 3 kts 265°
2026-05-09 06:41 49.00055 2.57616 361 ft 0 kts 265°
2026-05-09 06:44 49.00054 2.57595 364 ft 3 kts 266°
2026-05-09 06:45 49.00052 2.57561 368 ft 3 kts 263°
2026-05-09 06:45 49.00048 2.57480 365 ft 11 kts 266°
2026-05-09 06:45 49.00042 2.57360 359 ft 11 kts 265°
2026-05-09 06:45 49.00009 2.57288 364 ft 5 kts 200°
2026-05-09 06:46 48.99976 2.57270 365 ft 5 kts 214°
2026-05-09 06:46 48.99956 2.57220 362 ft 6 kts 252°
2026-05-09 06:46 48.99947 2.57121 365 ft 17 kts 264°
2026-05-09 06:46 48.99938 2.56947 359 ft 16 kts 265°
2026-05-09 06:47 48.99929 2.56794 366 ft 14 kts 264°
2026-05-09 06:47 48.99922 2.56647 359 ft 14 kts 266°
2026-05-09 06:47 48.99914 2.56499 365 ft 14 kts 264°
2026-05-09 06:47 48.99906 2.56350 359 ft 14 kts 266°
2026-05-09 06:48 48.99900 2.56203 361 ft 14 kts 266°
2026-05-09 06:48 48.99891 2.56061 359 ft 13 kts 265°
2026-05-09 06:48 48.99894 2.55933 359 ft 11 kts 279°
2026-05-09 06:48 48.99900 2.55839 365 ft 8 kts 257°
2026-05-09 06:49 48.99890 2.55816 365 ft 1 kts 227°
2026-05-09 06:49 48.99872 2.55804 363 ft 7 kts 199°
2026-05-09 06:49 48.99802 2.55802 366 ft 10 kts 175°
2026-05-09 06:49 48.99756 2.55808 362 ft 6 kts 175°
2026-05-09 06:50 48.99712 2.55813 361 ft 6 kts 176°
2026-05-09 06:50 48.99668 2.55816 367 ft 6 kts 178°
2026-05-09 06:50 48.99625 2.55827 360 ft 7 kts 152°
2026-05-09 06:50 48.99607 2.55879 366 ft 6 kts 98°
2026-05-09 06:51 48.99607 2.55907 361 ft 0 kts 88°
2026-05-09 06:51 48.99616 2.56134 366 ft 58 kts 86°
2026-05-09 06:51 48.99671 2.57140 360 ft 131 kts 85°
2026-05-09 06:52 48.99773 2.58827 390 ft 182 kts 85°
2026-05-09 06:52 48.99855 2.60705 1032 ft 179 kts 88°
2026-05-09 06:52 48.99935 2.62638 1715 ft 183 kts 85°
2026-05-09 06:52 49.00050 2.64575 2451 ft 185 kts 86°
2026-05-09 06:53 49.00164 2.66546 3061 ft 189 kts 86°
2026-05-09 06:53 49.00277 2.68558 3649 ft 192 kts 87°
2026-05-09 06:53 49.00389 2.70594 4172 ft 200 kts 88°
2026-05-09 06:53 49.00502 2.72839 4363 ft 225 kts 87°
2026-05-09 06:54 49.00629 2.75353 4659 ft 246 kts 88°
2026-05-09 06:54 49.00740 2.77980 5194 ft 256 kts 92°
2026-05-09 06:54 49.00540 2.80717 5752 ft 265 kts 102°
2026-05-09 06:54 49.00199 2.83523 6441 ft 273 kts 102°
2026-05-09 06:55 48.99969 2.85452 6930 ft 276 kts 102°
2026-05-09 06:55 48.99645 2.88325 7657 ft 281 kts 101°
2026-05-09 06:55 48.99325 2.91287 8406 ft 285 kts 101°
2026-05-09 06:55 48.99007 2.94297 9147 ft 290 kts 101°
2026-05-09 06:56 48.98606 2.97321 9801 ft 292 kts 113°
2026-05-09 06:56 48.97451 2.99838 10294 ft 295 kts 143°
2026-05-09 06:56 48.95595 3.01298 10529 ft 312 kts 168°
2026-05-09 06:56 48.93374 3.01489 10725 ft 332 kts 189°
2026-05-09 06:57 48.91102 3.00414 10971 ft 352 kts 209°
2026-05-09 06:57 48.89153 2.98081 11592 ft 362 kts 230°
2026-05-09 06:57 48.87879 2.94816 12396 ft 368 kts 250°
2026-05-09 06:57 48.87281 2.90996 13369 ft 374 kts 260°
2026-05-09 06:58 48.86915 2.87065 14269 ft 379 kts 261°
2026-05-09 06:58 48.86547 2.83069 15102 ft 384 kts 260°
2026-05-09 06:58 48.86116 2.79017 15917 ft 390 kts 259°
2026-05-09 06:58 48.85621 2.74927 16734 ft 396 kts 258°
2026-05-09 06:59 48.85085 2.70808 17570 ft 401 kts 257°
2026-05-09 06:59 48.84523 2.66601 18393 ft 407 kts 257°
2026-05-09 06:59 48.83855 2.62418 18990 ft 410 kts 249°
2026-05-09 06:59 48.82475 2.58694 19542 ft 409 kts 232°
2026-05-09 07:00 48.80717 2.55232 20127 ft 417 kts 231°
2026-05-09 07:00 48.78978 2.51674 20859 ft 421 kts 232°
2026-05-09 07:00 48.77263 2.48049 21610 ft 424 kts 233°
2026-05-09 07:00 48.75546 2.44383 22310 ft 429 kts 233°
2026-05-09 07:01 48.73797 2.40686 22953 ft 431 kts 230°
2026-05-09 07:01 48.71677 2.37461 23405 ft 436 kts 213°
2026-05-09 07:01 48.69092 2.35192 23856 ft 436 kts 207°
2026-05-09 07:01 48.66417 2.32946 24374 ft 441 kts 208°
2026-05-09 07:02 48.63747 2.30622 24997 ft 443 kts 208°
2026-05-09 07:02 48.61075 2.28242 25561 ft 446 kts 209°
2026-05-09 07:02 48.58398 2.25834 26104 ft 449 kts 209°
2026-05-09 07:02 48.55728 2.23429 26595 ft 453 kts 208°
2026-05-09 07:03 48.53002 2.20982 27100 ft 457 kts 208°
2026-05-09 07:03 48.50253 2.18524 27584 ft 460 kts 208°
2026-05-09 07:03 48.47470 2.16067 28077 ft 463 kts 208°
2026-05-09 07:03 48.44677 2.13622 28618 ft 465 kts 207°
2026-05-09 07:04 48.41899 2.11196 29084 ft 467 kts 207°
2026-05-09 07:04 48.39076 2.08728 29520 ft 470 kts 207°
2026-05-09 07:04 48.36234 2.06243 29894 ft 473 kts 207°
2026-05-09 07:04 48.33374 2.03744 30236 ft 475 kts 207°
2026-05-09 07:05 48.30456 2.01439 30494 ft 471 kts 198°
2026-05-09 07:05 48.27334 2.00273 30778 ft 466 kts 182°
2026-05-09 07:05 48.24130 2.00331 31166 ft 459 kts 174°
2026-05-09 07:05 48.20921 2.00575 31515 ft 460 kts 175°
2026-05-09 07:06 48.17723 2.00727 31948 ft 459 kts 176°
2026-05-09 07:06 48.14538 2.00827 32410 ft 457 kts 177°
2026-05-09 07:06 48.11395 2.00912 32852 ft 455 kts 177°
2026-05-09 07:06 48.08226 2.01002 33251 ft 454 kts 176°
2026-05-09 07:07 48.05060 2.01137 33656 ft 453 kts 176°
2026-05-09 07:07 48.01904 2.01321 34046 ft 452 kts 175°
2026-05-09 07:07 47.98751 2.01520 34350 ft 452 kts 176°
2026-05-09 07:07 47.95637 2.01719 34555 ft 454 kts 176°
2026-05-09 07:08 47.92467 2.01914 34809 ft 455 kts 176°
2026-05-09 07:08 47.89294 2.02103 34976 ft 458 kts 177°
2026-05-09 07:08 47.82892 2.02474 35044 ft 459 kts 177°
2026-05-09 07:09 47.76576 2.02837 35012 ft 455 kts 178°
2026-05-09 07:09 47.70212 2.03203 35029 ft 458 kts 178°
2026-05-09 07:10 47.63810 2.03570 35026 ft 461 kts 178°
2026-05-09 07:10 47.57418 2.03941 35018 ft 462 kts 178°
2026-05-09 07:11 47.50969 2.04319 35016 ft 462 kts 178°
2026-05-09 07:11 47.44534 2.04694 35014 ft 462 kts 178°
2026-05-09 07:12 47.38149 2.05065 35013 ft 461 kts 178°
2026-05-09 07:12 47.31750 2.04782 35004 ft 459 kts 188°
2026-05-09 07:13 47.25457 2.03157 35017 ft 458 kts 191°
2026-05-09 07:13 47.19205 2.01528 35008 ft 459 kts 191°
2026-05-09 07:14 47.12903 1.99928 35005 ft 459 kts 191°
2026-05-09 07:14 47.06636 1.98348 35009 ft 459 kts 191°
2026-05-09 07:15 47.00330 1.96764 35009 ft 459 kts 191°
2026-05-09 07:15 46.94016 1.95180 34994 ft 459 kts 192°
2026-05-09 07:16 46.87756 1.93614 34996 ft 458 kts 192°
2026-05-09 07:16 46.81462 1.92042 34996 ft 458 kts 192°
2026-05-09 07:17 46.75176 1.90476 34997 ft 457 kts 192°
2026-05-09 07:17 46.68925 1.88922 34995 ft 457 kts 192°
2026-05-09 07:18 46.62646 1.87365 34995 ft 457 kts 192°
2026-05-09 07:18 46.56407 1.85821 34996 ft 457 kts 192°
2026-05-09 07:19 46.50130 1.84273 35001 ft 456 kts 193°
2026-05-09 07:19 46.43875 1.82732 34993 ft 455 kts 193°
2026-05-09 07:20 46.37662 1.81206 35000 ft 454 kts 193°
2026-05-09 07:20 46.31425 1.79677 35000 ft 452 kts 194°
2026-05-09 07:21 46.25542 1.76787 35005 ft 443 kts 210°
2026-05-09 07:21 46.20487 1.71879 35001 ft 440 kts 223°
2026-05-09 07:22 46.15889 1.66036 35000 ft 440 kts 223°
2026-05-09 07:22 46.11276 1.60240 34996 ft 438 kts 223°
2026-05-09 07:23 46.06697 1.54557 35008 ft 435 kts 222°
2026-05-09 07:23 46.02107 1.48884 35010 ft 433 kts 222°
2026-05-09 07:24 45.97599 1.43147 35009 ft 431 kts 227°
2026-05-09 07:24 45.93895 1.36483 35019 ft 428 kts 236°
2026-05-09 07:25 45.90962 1.29073 35025 ft 426 kts 243°
2026-05-09 07:25 45.88314 1.21467 35021 ft 425 kts 242°
2026-05-09 07:26 45.85634 1.13887 35033 ft 425 kts 242°
2026-05-09 07:26 45.82812 1.06470 35017 ft 426 kts 235°
2026-05-09 07:27 45.79069 0.99859 35017 ft 427 kts 227°
2026-05-09 07:27 45.74637 0.94137 35011 ft 429 kts 221°
2026-05-09 07:28 45.70054 0.88729 34993 ft 428 kts 221°
2026-05-09 07:28 45.65461 0.83300 34993 ft 427 kts 221°
2026-05-09 07:29 45.60921 0.77909 35014 ft 426 kts 221°
2026-05-09 07:29 45.56354 0.72481 34993 ft 426 kts 221°
2026-05-09 07:30 45.51803 0.67084 34991 ft 424 kts 221°
2026-05-09 07:30 45.47293 0.61746 34990 ft 422 kts 221°
2026-05-09 07:31 45.42774 0.56411 34989 ft 421 kts 221°
2026-05-09 07:31 45.38258 0.51090 34985 ft 421 kts 221°
2026-05-09 07:32 45.33776 0.45821 34994 ft 420 kts 221°
2026-05-09 07:32 45.29261 0.40523 34989 ft 420 kts 221°
2026-05-09 07:33 45.22483 0.32590 34990 ft 421 kts 220°
2026-05-09 07:34 45.17972 0.27326 34975 ft 421 kts 220°
2026-05-09 07:34 45.13439 0.22047 34981 ft 421 kts 220°
2026-05-09 07:35 45.08934 0.16809 34976 ft 421 kts 220°
2026-05-09 07:35 45.04400 0.11550 34978 ft 421 kts 220°
2026-05-09 07:36 44.99895 0.06340 34976 ft 420 kts 220°
2026-05-09 07:36 44.95364 0.01110 34974 ft 419 kts 220°
2026-05-09 07:37 44.90833 -0.04112 34977 ft 419 kts 219°
2026-05-09 07:37 44.86346 -0.09272 34972 ft 418 kts 219°
2026-05-09 07:38 44.81834 -0.14452 34969 ft 418 kts 219°
2026-05-09 07:38 44.77323 -0.19620 34971 ft 417 kts 219°
2026-05-09 07:39 44.72816 -0.24773 34965 ft 417 kts 219°
2026-05-09 07:39 44.68329 -0.29894 34960 ft 417 kts 219°
2026-05-09 07:40 44.63760 -0.34949 34953 ft 418 kts 216°
2026-05-09 07:40 44.58981 -0.39528 34953 ft 418 kts 215°
2026-05-09 07:41 44.54171 -0.44145 34956 ft 418 kts 215°
2026-05-09 07:41 44.50181 -0.47980 34950 ft 418 kts 215°
2026-05-09 07:42 44.45379 -0.52593 34949 ft 418 kts 215°
2026-05-09 07:42 44.40569 -0.57203 34935 ft 418 kts 214°
2026-05-09 07:43 44.35796 -0.61769 34938 ft 418 kts 214°
2026-05-09 07:43 44.30980 -0.66368 34939 ft 419 kts 214°
2026-05-09 07:44 44.26153 -0.70948 34942 ft 419 kts 214°
2026-05-09 07:44 44.21274 -0.75442 34934 ft 419 kts 213°
2026-05-09 07:45 44.16413 -0.79887 34945 ft 420 kts 213°
2026-05-09 07:45 44.11521 -0.84365 34935 ft 420 kts 213°
2026-05-09 07:46 44.06627 -0.88844 34935 ft 420 kts 213°
2026-05-09 07:46 44.01732 -0.93319 34923 ft 420 kts 213°
2026-05-09 07:47 43.96866 -0.97758 34921 ft 420 kts 213°
2026-05-09 07:47 43.91960 -1.02224 34920 ft 421 kts 213°
2026-05-09 07:48 43.87057 -1.06678 34918 ft 421 kts 213°
2026-05-09 07:48 43.82181 -1.11099 34909 ft 421 kts 212°
2026-05-09 07:49 43.77263 -1.15549 34942 ft 421 kts 212°
2026-05-09 07:49 43.72354 -1.19983 34920 ft 421 kts 212°
2026-05-09 07:50 43.67478 -1.24378 34914 ft 420 kts 212°
2026-05-09 07:50 43.62578 -1.28786 34913 ft 419 kts 212°
2026-05-09 07:51 43.57682 -1.33182 34913 ft 419 kts 212°
2026-05-09 07:51 43.52822 -1.37537 34913 ft 419 kts 212°
2026-05-09 07:52 43.47923 -1.41917 34909 ft 419 kts 212°
2026-05-09 07:52 43.43020 -1.46294 34917 ft 419 kts 212°
2026-05-09 07:53 43.38148 -1.50634 34911 ft 419 kts 212°
2026-05-09 07:53 43.33241 -1.54999 34908 ft 420 kts 211°
2026-05-09 07:54 43.28264 -1.59113 34884 ft 418 kts 204°
2026-05-09 07:54 43.22784 -1.61781 34903 ft 417 kts 196°
2026-05-09 07:55 43.17042 -1.63136 34906 ft 419 kts 188°
2026-05-09 07:55 43.11277 -1.64029 34911 ft 419 kts 188°
2026-05-09 07:56 43.05486 -1.64948 34927 ft 418 kts 188°
2026-05-09 07:56 42.99685 -1.65897 34934 ft 419 kts 189°
2026-05-09 07:57 42.93929 -1.66843 34937 ft 419 kts 188°
2026-05-09 07:57 42.88124 -1.67795 34995 ft 420 kts 188°
2026-05-09 07:58 42.82303 -1.68749 34986 ft 421 kts 188°
2026-05-09 07:58 42.76535 -1.69841 34998 ft 420 kts 194°
2026-05-09 07:59 42.70933 -1.72122 35004 ft 419 kts 200°
2026-05-09 07:59 42.65632 -1.75349 34979 ft 420 kts 206°
2026-05-09 08:00 42.60396 -1.78910 34990 ft 420 kts 206°
2026-05-09 08:00 42.55185 -1.82425 34976 ft 420 kts 205°
2026-05-09 08:01 42.49940 -1.85935 34975 ft 419 kts 205°
2026-05-09 08:01 42.44711 -1.89424 34967 ft 418 kts 205°
2026-05-09 08:02 42.39514 -1.92890 34965 ft 418 kts 205°
2026-05-09 08:02 42.34296 -1.96367 34967 ft 416 kts 205°
2026-05-09 08:03 42.29139 -1.99806 34956 ft 414 kts 205°
2026-05-09 08:03 42.23977 -2.03240 34963 ft 413 kts 205°
2026-05-09 08:04 42.18846 -2.06642 34959 ft 412 kts 205°
2026-05-09 08:04 42.13695 -2.10050 34953 ft 412 kts 205°
2026-05-09 08:05 42.08528 -2.13461 34960 ft 413 kts 205°
2026-05-09 08:05 42.03389 -2.16849 34939 ft 414 kts 205°
2026-05-09 08:06 41.98202 -2.20261 34951 ft 415 kts 205°
2026-05-09 08:06 41.92997 -2.23679 34957 ft 417 kts 205°
2026-05-09 08:07 41.87799 -2.27089 34936 ft 419 kts 204°
2026-05-09 08:07 41.82544 -2.30528 34953 ft 419 kts 204°
2026-05-09 08:08 41.77294 -2.33959 34944 ft 418 kts 204°
2026-05-09 08:08 41.72062 -2.37371 34938 ft 417 kts 204°
2026-05-09 08:09 41.66884 -2.40742 34940 ft 415 kts 204°
2026-05-09 08:09 41.61680 -2.44124 34941 ft 414 kts 204°
2026-05-09 08:10 41.56493 -2.47489 34941 ft 414 kts 204°
2026-05-09 08:10 41.51330 -2.50832 34928 ft 415 kts 204°
2026-05-09 08:11 41.46114 -2.54196 34936 ft 416 kts 204°
2026-05-09 08:11 41.40902 -2.57545 34953 ft 418 kts 204°
2026-05-09 08:12 41.32766 -2.61726 34944 ft 418 kts 191°
2026-05-09 08:12 41.26964 -2.62582 34916 ft 421 kts 180°
2026-05-09 08:13 41.21139 -2.62052 34939 ft 422 kts 178°
2026-05-09 08:13 41.15263 -2.61463 34935 ft 423 kts 178°
2026-05-09 08:14 41.09408 -2.60921 34926 ft 423 kts 178°
2026-05-09 08:14 41.03519 -2.60394 34932 ft 424 kts 178°
2026-05-09 08:15 40.97633 -2.59868 34933 ft 424 kts 178°
2026-05-09 08:15 40.91734 -2.59341 34933 ft 424 kts 178°
2026-05-09 08:16 40.85874 -2.58818 34928 ft 424 kts 178°
2026-05-09 08:16 40.79984 -2.58292 34937 ft 424 kts 178°
2026-05-09 08:17 40.74078 -2.57765 34933 ft 425 kts 178°
2026-05-09 08:17 40.68203 -2.57244 34930 ft 425 kts 178°
2026-05-09 08:18 40.62294 -2.56718 34927 ft 425 kts 178°
2026-05-09 08:18 40.56394 -2.56195 34935 ft 425 kts 178°
2026-05-09 08:19 40.50489 -2.55673 34934 ft 425 kts 178°
2026-05-09 08:19 40.44618 -2.55154 34922 ft 425 kts 178°
2026-05-09 08:20 40.38723 -2.55169 34926 ft 423 kts 187°
2026-05-09 08:20 40.32971 -2.56651 34937 ft 423 kts 195°
2026-05-09 08:21 40.27422 -2.59323 34937 ft 424 kts 199°
2026-05-09 08:21 40.21936 -2.62130 34911 ft 425 kts 199°
2026-05-09 08:22 40.16399 -2.64931 34921 ft 426 kts 199°
2026-05-09 08:22 40.10837 -2.67718 34958 ft 428 kts 199°
2026-05-09 08:23 40.05297 -2.70483 34936 ft 428 kts 199°
2026-05-09 08:23 39.99723 -2.73259 34917 ft 428 kts 199°
2026-05-09 08:24 39.94155 -2.76028 34920 ft 427 kts 199°
2026-05-09 08:24 39.88619 -2.78775 34923 ft 427 kts 199°
2026-05-09 08:25 39.83058 -2.81531 34927 ft 427 kts 199°
2026-05-09 08:25 39.77532 -2.84264 34926 ft 427 kts 199°
2026-05-09 08:26 39.71963 -2.87014 34927 ft 427 kts 199°
2026-05-09 08:26 39.66418 -2.89749 34924 ft 428 kts 199°
2026-05-09 08:27 39.60840 -2.92494 34922 ft 429 kts 199°
2026-05-09 08:27 39.56191 -2.94781 34929 ft 429 kts 199°
2026-05-09 08:28 39.49692 -2.97984 34919 ft 429 kts 199°
2026-05-09 08:28 39.45048 -3.00270 34924 ft 429 kts 199°
2026-05-09 08:29 39.39457 -3.03016 34920 ft 429 kts 199°
2026-05-09 08:29 39.33854 -3.05742 34947 ft 429 kts 199°
2026-05-09 08:30 39.28249 -3.08458 34908 ft 429 kts 199°
2026-05-09 08:30 39.22695 -3.11149 34911 ft 428 kts 199°
2026-05-09 08:31 39.17116 -3.13847 34910 ft 428 kts 199°
2026-05-09 08:31 39.11541 -3.16539 34909 ft 427 kts 199°
2026-05-09 08:32 39.05996 -3.19213 34899 ft 428 kts 199°
2026-05-09 08:32 39.00374 -3.21919 35264 ft 431 kts 199°
2026-05-09 08:33 38.97575 -3.23266 35571 ft 430 kts 199°
2026-05-09 08:33 38.94764 -3.24621 35869 ft 430 kts 200°
2026-05-09 08:33 38.91998 -3.25954 36139 ft 430 kts 200°
2026-05-09 08:33 38.89192 -3.27306 36382 ft 430 kts 200°
2026-05-09 08:34 38.86382 -3.28659 36631 ft 430 kts 201°
2026-05-09 08:34 38.83571 -3.30012 36795 ft 431 kts 201°
2026-05-09 08:34 38.80745 -3.31370 36848 ft 434 kts 201°
2026-05-09 08:35 38.75129 -3.34065 36905 ft 433 kts 201°
2026-05-09 08:35 38.69485 -3.36769 36912 ft 432 kts 201°
2026-05-09 08:36 38.63887 -3.39446 36909 ft 431 kts 201°
2026-05-09 08:36 38.58254 -3.42136 36906 ft 431 kts 201°
2026-05-09 08:37 38.52618 -3.44822 36910 ft 432 kts 201°
2026-05-09 08:37 38.47008 -3.47491 36919 ft 433 kts 201°
2026-05-09 08:38 38.41340 -3.50184 36908 ft 434 kts 201°
2026-05-09 08:38 38.35701 -3.52859 36911 ft 435 kts 201°
2026-05-09 08:39 38.30018 -3.55551 36911 ft 435 kts 201°
2026-05-09 08:39 38.24323 -3.58243 36908 ft 435 kts 201°
2026-05-09 08:40 38.18677 -3.60907 36904 ft 435 kts 201°
2026-05-09 08:40 38.13045 -3.63733 36889 ft 434 kts 205°
2026-05-09 08:41 38.07516 -3.66875 36899 ft 435 kts 205°
2026-05-09 08:41 38.01992 -3.70022 36907 ft 435 kts 205°
2026-05-09 08:42 37.96481 -3.73144 36909 ft 436 kts 205°
2026-05-09 08:42 37.90928 -3.76277 36911 ft 436 kts 205°
2026-05-09 08:43 37.85412 -3.79380 36904 ft 436 kts 205°
2026-05-09 08:43 37.79848 -3.82507 36929 ft 437 kts 206°
2026-05-09 08:44 37.74260 -3.85642 36918 ft 439 kts 206°
2026-05-09 08:44 37.68702 -3.88755 36907 ft 440 kts 206°
2026-05-09 08:45 37.63079 -3.91899 36899 ft 441 kts 206°
2026-05-09 08:45 37.57483 -3.95024 36913 ft 442 kts 206°
2026-05-09 08:46 37.51836 -3.98171 36908 ft 443 kts 206°
2026-05-09 08:46 37.46225 -4.01293 36910 ft 443 kts 206°
2026-05-09 08:47 37.40563 -4.04438 36892 ft 444 kts 206°
2026-05-09 08:47 37.34911 -4.07572 36919 ft 444 kts 206°
2026-05-09 08:48 37.29289 -4.10685 36919 ft 443 kts 206°
2026-05-09 08:48 37.23633 -4.13812 36928 ft 443 kts 206°
2026-05-09 08:49 37.17975 -4.16934 36938 ft 444 kts 206°
2026-05-09 08:49 37.12355 -4.20030 36937 ft 443 kts 207°
2026-05-09 08:50 37.06698 -4.23143 36932 ft 444 kts 207°
2026-05-09 08:50 37.01032 -4.26259 36931 ft 443 kts 207°
2026-05-09 08:51 36.95408 -4.29338 36940 ft 443 kts 207°
2026-05-09 08:51 36.89753 -4.32434 36924 ft 443 kts 207°
2026-05-09 08:52 36.84101 -4.35524 36931 ft 442 kts 207°
2026-05-09 08:52 36.78672 -4.39079 36950 ft 440 kts 216°
2026-05-09 08:53 36.73543 -4.43212 36922 ft 441 kts 216°
2026-05-09 08:53 36.68368 -4.47339 36924 ft 441 kts 215°
2026-05-09 08:54 36.63217 -4.51422 36938 ft 441 kts 216°
2026-05-09 08:54 36.58035 -4.55519 36940 ft 440 kts 216°
2026-05-09 08:55 36.52856 -4.59607 36956 ft 440 kts 216°
2026-05-09 08:55 36.47675 -4.63690 36954 ft 440 kts 216°
2026-05-09 08:56 36.42521 -4.67746 36956 ft 441 kts 216°
2026-05-09 08:56 36.37335 -4.71820 36945 ft 441 kts 216°
2026-05-09 08:57 36.32136 -4.75899 36960 ft 441 kts 216°
2026-05-09 08:57 36.26978 -4.79940 36959 ft 441 kts 216°
2026-05-09 08:58 36.21775 -4.84009 36963 ft 442 kts 216°
2026-05-09 08:58 36.16562 -4.88080 36965 ft 442 kts 216°
2026-05-09 08:59 36.11402 -4.92134 36963 ft 441 kts 217°
2026-05-09 08:59 36.06234 -4.96248 36967 ft 441 kts 217°
2026-05-09 09:00 36.01089 -5.00338 36960 ft 441 kts 217°
2026-05-09 09:00 35.95912 -5.04438 36956 ft 442 kts 217°
2026-05-09 09:01 35.90718 -5.08545 36946 ft 442 kts 217°
2026-05-09 09:01 35.85524 -5.12645 36950 ft 442 kts 217°
2026-05-09 09:02 35.80498 -5.16927 36937 ft 440 kts 221°
2026-05-09 09:02 35.75592 -5.21471 36924 ft 440 kts 221°
2026-05-09 09:03 35.70724 -5.25976 36915 ft 440 kts 221°
2026-05-09 09:03 35.65807 -5.30506 36913 ft 440 kts 221°
2026-05-09 09:04 35.60925 -5.34988 36909 ft 440 kts 221°
2026-05-09 09:04 35.56008 -5.39493 36913 ft 439 kts 221°
2026-05-09 09:05 35.51103 -5.43982 36921 ft 439 kts 221°
2026-05-09 09:05 35.46232 -5.48434 36910 ft 439 kts 221°
2026-05-09 09:06 35.41319 -5.52917 36932 ft 439 kts 221°
2026-05-09 09:06 35.36407 -5.57391 36895 ft 439 kts 221°
2026-05-09 09:07 35.31536 -5.61819 36947 ft 438 kts 221°
2026-05-09 09:07 35.26646 -5.66259 36944 ft 436 kts 221°
2026-05-09 09:08 35.21797 -5.70655 36946 ft 436 kts 221°
2026-05-09 09:08 35.16923 -5.75069 36948 ft 436 kts 221°
2026-05-09 09:09 35.12050 -5.79475 36945 ft 435 kts 221°
2026-05-09 09:09 35.07181 -5.83868 36952 ft 433 kts 221°
2026-05-09 09:10 35.02359 -5.88214 36952 ft 432 kts 222°
2026-05-09 09:10 34.97513 -5.92574 36959 ft 432 kts 222°
2026-05-09 09:11 34.92675 -5.96922 36943 ft 431 kts 221°
2026-05-09 09:11 34.87840 -6.01259 36949 ft 431 kts 221°
2026-05-09 09:12 34.83025 -6.05573 36931 ft 431 kts 222°
2026-05-09 09:12 34.78188 -6.09898 36950 ft 430 kts 223°
2026-05-09 09:13 34.73368 -6.14203 36938 ft 429 kts 222°
2026-05-09 09:13 34.68579 -6.18474 36942 ft 428 kts 222°
2026-05-09 09:14 34.63779 -6.22749 36947 ft 427 kts 223°
2026-05-09 09:14 34.58975 -6.27021 36937 ft 427 kts 222°
2026-05-09 09:15 34.54219 -6.31243 36944 ft 425 kts 223°
2026-05-09 09:15 34.50246 -6.34765 36940 ft 424 kts 223°
2026-05-09 09:16 34.45507 -6.38963 36940 ft 423 kts 223°
2026-05-09 09:16 34.38375 -6.45268 36939 ft 422 kts 223°
2026-05-09 09:17 34.33614 -6.49470 36946 ft 423 kts 223°
2026-05-09 09:17 34.28885 -6.53638 36906 ft 422 kts 223°
2026-05-09 09:18 34.24135 -6.57816 36933 ft 421 kts 223°
2026-05-09 09:18 34.19390 -6.61986 36933 ft 421 kts 223°
2026-05-09 09:19 34.14672 -6.66127 36938 ft 421 kts 223°
2026-05-09 09:19 34.09931 -6.70283 36939 ft 421 kts 223°
2026-05-09 09:20 34.05177 -6.74443 36936 ft 421 kts 223°
2026-05-09 09:20 34.00386 -6.78466 36935 ft 422 kts 222°
2026-05-09 09:21 33.95519 -6.82433 36939 ft 421 kts 221°
2026-05-09 09:21 33.90658 -6.86400 36942 ft 421 kts 222°
2026-05-09 09:22 33.85818 -6.90365 36944 ft 421 kts 222°
2026-05-09 09:22 33.81007 -6.94307 36947 ft 421 kts 222°
2026-05-09 09:23 33.76160 -6.98274 36951 ft 420 kts 222°
2026-05-09 09:23 33.71327 -7.02224 36951 ft 419 kts 222°
2026-05-09 09:24 33.66527 -7.06143 36978 ft 419 kts 222°
2026-05-09 09:24 33.61690 -7.10086 36963 ft 420 kts 222°
2026-05-09 09:25 33.56847 -7.14027 36958 ft 420 kts 222°
2026-05-09 09:25 33.52002 -7.17965 36959 ft 421 kts 222°
2026-05-09 09:26 33.47175 -7.21883 36948 ft 421 kts 222°
2026-05-09 09:26 33.42320 -7.25819 36967 ft 420 kts 222°
2026-05-09 09:27 33.37495 -7.29724 36976 ft 421 kts 222°
2026-05-09 09:27 33.32641 -7.33648 36983 ft 421 kts 222°
2026-05-09 09:28 33.27781 -7.37572 36980 ft 421 kts 222°
2026-05-09 09:28 33.22922 -7.41490 36991 ft 421 kts 222°
2026-05-09 09:29 33.18089 -7.45381 36994 ft 421 kts 222°
2026-05-09 09:29 33.13225 -7.49293 36994 ft 421 kts 222°
2026-05-09 09:30 33.08222 -7.53019 36998 ft 424 kts 219°
2026-05-09 09:30 33.03165 -7.56550 37002 ft 424 kts 219°
2026-05-09 09:31 32.98074 -7.60111 36998 ft 424 kts 219°
2026-05-09 09:32 32.90434 -7.65471 36990 ft 423 kts 219°
2026-05-09 09:32 32.85354 -7.69030 36999 ft 423 kts 219°
2026-05-09 09:33 32.80304 -7.72565 37007 ft 423 kts 219°
2026-05-09 09:33 32.75214 -7.76126 37005 ft 423 kts 219°
2026-05-09 09:34 32.70135 -7.79675 37003 ft 423 kts 219°
2026-05-09 09:34 32.65089 -7.83197 37015 ft 423 kts 219°
2026-05-09 09:36 32.44838 -7.97284 37011 ft 421 kts 219°
2026-05-09 09:37 32.39802 -8.00775 37016 ft 421 kts 219°
2026-05-09 09:37 32.34746 -8.04276 36965 ft 420 kts 219°
2026-05-09 09:38 32.29696 -8.07768 37004 ft 419 kts 220°
2026-05-09 09:38 32.24685 -8.11230 37016 ft 419 kts 220°
2026-05-09 09:39 32.19644 -8.14708 37025 ft 419 kts 220°
2026-05-09 09:39 32.14603 -8.18182 37020 ft 419 kts 220°
2026-05-09 09:40 32.09581 -8.21615 37020 ft 420 kts 219°
2026-05-09 09:40 32.04500 -8.25022 37005 ft 419 kts 219°
2026-05-09 09:41 31.99419 -8.28419 37023 ft 418 kts 219°
2026-05-09 09:41 31.94385 -8.31789 37022 ft 418 kts 219°
2026-05-09 09:42 31.89310 -8.35186 37021 ft 419 kts 219°
2026-05-09 09:42 31.84259 -8.38564 37029 ft 419 kts 219°
2026-05-09 09:43 31.79171 -8.41963 36954 ft 420 kts 219°
2026-05-09 09:43 31.74121 -8.45328 37003 ft 419 kts 219°
2026-05-09 09:44 31.69053 -8.48704 37010 ft 418 kts 219°
2026-05-09 09:44 31.63981 -8.52079 37008 ft 418 kts 219°
2026-05-09 09:45 31.58946 -8.55425 37009 ft 418 kts 219°
2026-05-09 09:45 31.53881 -8.58786 37015 ft 417 kts 219°
2026-05-09 09:46 31.48818 -8.62141 36960 ft 416 kts 219°
2026-05-09 09:46 31.43809 -8.65455 36999 ft 415 kts 219°
2026-05-09 09:47 31.38764 -8.68791 37004 ft 415 kts 219°
2026-05-09 09:47 31.33752 -8.72101 37019 ft 415 kts 219°
2026-05-09 09:48 31.28708 -8.75428 37013 ft 416 kts 219°
2026-05-09 09:48 31.23656 -8.78756 37008 ft 416 kts 219°
2026-05-09 09:49 31.18630 -8.82061 37026 ft 415 kts 219°
2026-05-09 09:49 31.13587 -8.85376 37037 ft 415 kts 219°
2026-05-09 09:50 31.08579 -8.88661 37061 ft 414 kts 219°
2026-05-09 09:50 31.03561 -8.91949 37007 ft 413 kts 219°
2026-05-09 09:51 30.98555 -8.95230 37026 ft 417 kts 219°
2026-05-09 09:51 30.93480 -8.98550 37049 ft 419 kts 219°
2026-05-09 09:52 30.88382 -9.01878 37033 ft 419 kts 219°
2026-05-09 09:52 30.83281 -9.05202 37049 ft 420 kts 219°
2026-05-09 09:53 30.78208 -9.08507 37047 ft 420 kts 219°
2026-05-09 09:53 30.73095 -9.11833 37024 ft 420 kts 219°
2026-05-09 09:54 30.67999 -9.15148 37069 ft 419 kts 219°
2026-05-09 09:54 30.62916 -9.18445 37003 ft 421 kts 219°
2026-05-09 09:55 30.57794 -9.21764 37037 ft 420 kts 219°
2026-05-09 09:55 30.52715 -9.25051 37049 ft 420 kts 219°
2026-05-09 09:56 30.47601 -9.28361 37046 ft 420 kts 219°
2026-05-09 09:56 30.42512 -9.31649 37051 ft 420 kts 219°
2026-05-09 09:57 30.37389 -9.34955 37048 ft 421 kts 219°
2026-05-09 09:57 30.32257 -9.38177 37052 ft 425 kts 216°
2026-05-09 09:58 30.26679 -9.40743 37054 ft 432 kts 211°
2026-05-09 09:58 30.21031 -9.43172 37051 ft 432 kts 211°
2026-05-09 09:59 30.15436 -9.45600 37049 ft 431 kts 211°
2026-05-09 09:59 30.09805 -9.48050 37055 ft 431 kts 212°
2026-05-09 10:00 30.04218 -9.50478 36985 ft 431 kts 211°
2026-05-09 10:00 29.98601 -9.52914 37041 ft 430 kts 211°
2026-05-09 10:01 29.92986 -9.55349 37051 ft 431 kts 211°
2026-05-09 10:01 29.87408 -9.57780 37048 ft 431 kts 212°
2026-05-09 10:02 29.81785 -9.60239 37045 ft 432 kts 212°
2026-05-09 10:02 29.76146 -9.62701 37179 ft 434 kts 211°
2026-05-09 10:02 29.73326 -9.63929 37480 ft 433 kts 211°
2026-05-09 10:03 29.70512 -9.65152 37801 ft 432 kts 211°
2026-05-09 10:03 29.67724 -9.66367 37939 ft 434 kts 211°
2026-05-09 10:03 29.64887 -9.67603 37986 ft 437 kts 211°
2026-05-09 10:04 29.60167 -9.69650 38039 ft 433 kts 211°
2026-05-09 10:04 29.54555 -9.72076 38043 ft 428 kts 212°
2026-05-09 10:05 29.48995 -9.74484 38052 ft 426 kts 212°
2026-05-09 10:05 29.43476 -9.76876 38043 ft 425 kts 212°
2026-05-09 10:06 29.37922 -9.79279 38045 ft 426 kts 211°
2026-05-09 10:06 29.32390 -9.81671 38051 ft 427 kts 211°
2026-05-09 10:07 29.26806 -9.84079 38061 ft 429 kts 211°
2026-05-09 10:07 29.21201 -9.86493 38064 ft 430 kts 211°
2026-05-09 10:08 29.15621 -9.88893 38029 ft 431 kts 211°
2026-05-09 10:08 29.10001 -9.91307 38062 ft 431 kts 211°
2026-05-09 10:09 29.04402 -9.93712 38068 ft 431 kts 211°
2026-05-09 10:09 28.98769 -9.96126 38074 ft 432 kts 211°
2026-05-09 10:10 28.93131 -9.98529 38078 ft 432 kts 211°
2026-05-09 10:10 28.87475 -10.00933 38019 ft 432 kts 211°
2026-05-09 10:11 28.81870 -10.03315 38049 ft 432 kts 211°
2026-05-09 10:11 28.76229 -10.05710 38049 ft 432 kts 211°
2026-05-09 10:12 28.70621 -10.08090 38059 ft 432 kts 211°
2026-05-09 10:12 28.64976 -10.10482 38049 ft 432 kts 211°
2026-05-09 10:13 28.59368 -10.12856 38060 ft 432 kts 211°
2026-05-09 10:13 28.53737 -10.15237 38048 ft 432 kts 211°
2026-05-09 10:14 28.48087 -10.17623 38053 ft 432 kts 211°
2026-05-09 10:14 28.42442 -10.20005 38058 ft 433 kts 211°
2026-05-09 10:15 28.36819 -10.22375 38048 ft 434 kts 211°
2026-05-09 10:15 28.31148 -10.24761 38059 ft 434 kts 211°
2026-05-09 10:16 28.25469 -10.27149 38028 ft 434 kts 210°
2026-05-09 10:16 28.19796 -10.29530 38042 ft 435 kts 210°
2026-05-09 10:17 28.14149 -10.31899 38064 ft 435 kts 210°
2026-05-09 10:17 28.08466 -10.34280 38063 ft 435 kts 210°
2026-05-09 10:18 28.02775 -10.36661 38046 ft 435 kts 210°
2026-05-09 10:18 27.97080 -10.39043 38010 ft 436 kts 210°
2026-05-09 10:19 27.91426 -10.41403 38043 ft 435 kts 210°
2026-05-09 10:19 27.85719 -10.43784 38052 ft 436 kts 210°
2026-05-09 10:20 27.80051 -10.46146 38054 ft 437 kts 210°
2026-05-09 10:20 27.74333 -10.48526 38058 ft 437 kts 210°
2026-05-09 10:21 27.68614 -10.50904 38056 ft 438 kts 210°
2026-05-09 10:21 27.62943 -10.53290 38053 ft 437 kts 210°
2026-05-09 10:22 27.57257 -10.55747 38057 ft 437 kts 210°
2026-05-09 10:22 27.51575 -10.58206 38051 ft 437 kts 210°
2026-05-09 10:23 27.45911 -10.60648 38053 ft 438 kts 210°
2026-05-09 10:23 27.40211 -10.63096 38059 ft 438 kts 210°
2026-05-09 10:24 27.34511 -10.65541 38053 ft 438 kts 210°
2026-05-09 10:24 27.28842 -10.67970 38060 ft 438 kts 210°
2026-05-09 10:25 27.23134 -10.70414 38060 ft 438 kts 210°
2026-05-09 10:25 27.17430 -10.72853 38059 ft 438 kts 210°
2026-05-09 10:26 27.11764 -10.75273 38059 ft 437 kts 210°
2026-05-09 10:26 27.06073 -10.77701 38065 ft 437 kts 210°
2026-05-09 10:27 27.00368 -10.80133 38063 ft 437 kts 210°
2026-05-09 10:27 26.94695 -10.82549 38068 ft 438 kts 210°
2026-05-09 10:28 26.88980 -10.84980 38069 ft 439 kts 210°
2026-05-09 10:28 26.83243 -10.87418 38070 ft 440 kts 210°
2026-05-09 10:29 26.77542 -10.89837 38077 ft 440 kts 210°
2026-05-09 10:29 26.71806 -10.92268 38062 ft 440 kts 210°
2026-05-09 10:30 26.66056 -10.94703 38086 ft 441 kts 210°
2026-05-09 10:30 26.60329 -10.97127 38066 ft 443 kts 210°
2026-05-09 10:31 26.54549 -10.99569 38093 ft 443 kts 210°
2026-05-09 10:31 26.48757 -11.02013 38085 ft 444 kts 210°
2026-05-09 10:32 26.43007 -11.04437 38053 ft 444 kts 210°
2026-05-09 10:32 26.37217 -11.06876 38079 ft 444 kts 210°
2026-05-09 10:33 26.31415 -11.09317 38092 ft 445 kts 210°
2026-05-09 10:33 26.25647 -11.11742 38095 ft 445 kts 210°
2026-05-09 10:34 26.19838 -11.14180 38089 ft 446 kts 210°
2026-05-09 10:34 26.11144 -11.17825 38067 ft 446 kts 209°
2026-05-09 10:35 26.05324 -11.20262 38085 ft 446 kts 209°
2026-05-09 10:35 25.99542 -11.22681 38095 ft 446 kts 209°
2026-05-09 10:36 25.93713 -11.25117 38103 ft 447 kts 209°
2026-05-09 10:36 25.87903 -11.27542 38100 ft 447 kts 209°
2026-05-09 10:37 25.82058 -11.29979 38096 ft 448 kts 209°
2026-05-09 10:37 25.76215 -11.32413 38088 ft 448 kts 209°
2026-05-09 10:38 25.70402 -11.34832 38100 ft 448 kts 209°
2026-05-09 10:38 25.64545 -11.37266 38095 ft 449 kts 209°
2026-05-09 10:39 25.58680 -11.39701 38096 ft 450 kts 209°
2026-05-09 10:39 25.52815 -11.42134 38093 ft 450 kts 209°
2026-05-09 10:40 25.46981 -11.44551 38089 ft 450 kts 208°
2026-05-09 10:40 25.41108 -11.46982 38087 ft 450 kts 208°
2026-05-09 10:41 25.35222 -11.49416 38103 ft 451 kts 208°
2026-05-09 10:41 25.29364 -11.51837 38086 ft 452 kts 208°
2026-05-09 10:42 25.23458 -11.54274 38090 ft 453 kts 208°
2026-05-09 10:42 25.17522 -11.56643 38040 ft 454 kts 207°
2026-05-09 10:43 25.11561 -11.58872 38082 ft 455 kts 206°
2026-05-09 10:43 25.05551 -11.61111 38089 ft 455 kts 206°
2026-05-09 10:44 24.99578 -11.63352 38087 ft 455 kts 206°
2026-05-09 10:44 24.93566 -11.65616 38088 ft 456 kts 206°
2026-05-09 10:46 24.78570 -11.71258 38079 ft 456 kts 206°
2026-05-09 10:46 24.72552 -11.73518 38086 ft 456 kts 206°
2026-05-09 10:47 24.66584 -11.75756 38087 ft 456 kts 206°
2026-05-09 10:47 24.60570 -11.78010 38087 ft 456 kts 206°
2026-05-09 10:48 24.54557 -11.80261 38046 ft 456 kts 206°
2026-05-09 10:48 24.48581 -11.82495 38087 ft 455 kts 205°
2026-05-09 10:49 24.42566 -11.84742 38096 ft 456 kts 205°
2026-05-09 10:49 24.36575 -11.86979 38073 ft 457 kts 205°
2026-05-09 10:50 24.30540 -11.89229 38097 ft 458 kts 205°
2026-05-09 10:50 24.24491 -11.91482 38075 ft 458 kts 205°
2026-05-09 10:51 24.18480 -11.93718 38086 ft 458 kts 205°
2026-05-09 10:51 24.12429 -11.95967 38094 ft 458 kts 205°
2026-05-09 10:52 24.07398 -11.97835 38077 ft 458 kts 205°
2026-05-09 10:52 24.01353 -12.00078 38083 ft 458 kts 205°
2026-05-09 10:53 23.95344 -12.02305 38090 ft 458 kts 205°
2026-05-09 10:53 23.89301 -12.04543 38072 ft 457 kts 205°
2026-05-09 10:54 23.83258 -12.06778 38082 ft 457 kts 205°
2026-05-09 10:54 23.77257 -12.08996 38091 ft 457 kts 205°
2026-05-09 10:55 23.71250 -12.11215 38084 ft 458 kts 205°
2026-05-09 10:55 23.65203 -12.13445 38085 ft 458 kts 205°
2026-05-09 10:56 23.59160 -12.15672 38087 ft 458 kts 205°
2026-05-09 10:56 23.53151 -12.17885 38079 ft 458 kts 204°
2026-05-09 10:57 23.47107 -12.20108 38083 ft 458 kts 204°
2026-05-09 10:57 23.41058 -12.22332 38083 ft 458 kts 204°
2026-05-09 10:58 23.35041 -12.24546 38083 ft 458 kts 204°
2026-05-09 10:58 23.28977 -12.26775 38084 ft 459 kts 204°
2026-05-09 10:59 23.22963 -12.28984 38058 ft 453 kts 204°
2026-05-09 10:59 23.17062 -12.31142 38066 ft 441 kts 204°
2026-05-09 11:00 23.11337 -12.33241 38072 ft 432 kts 204°
2026-05-09 11:00 23.05667 -12.35319 38070 ft 425 kts 204°
2026-05-09 11:01 23.00120 -12.37350 38074 ft 419 kts 204°
2026-05-09 11:01 22.94613 -12.39365 38069 ft 414 kts 205°
2026-05-09 11:02 22.89216 -12.41337 38079 ft 409 kts 204°
2026-05-09 11:02 22.83848 -12.43299 38075 ft 404 kts 204°
2026-05-09 11:03 22.78537 -12.45237 38075 ft 400 kts 204°
2026-05-09 11:03 22.73198 -12.46982 38074 ft 399 kts 200°
2026-05-09 11:04 22.67845 -12.48426 38074 ft 397 kts 200°
2026-05-09 11:04 22.62518 -12.49849 38069 ft 394 kts 200°
2026-05-09 11:05 22.57212 -12.51278 38063 ft 391 kts 200°
2026-05-09 11:05 22.51940 -12.52705 38060 ft 388 kts 200°
2026-05-09 11:06 22.46704 -12.54124 38056 ft 386 kts 200°
2026-05-09 11:06 22.41542 -12.55523 38054 ft 383 kts 200°
2026-05-09 11:07 22.36377 -12.56922 38056 ft 381 kts 200°
2026-05-09 11:07 22.31246 -12.58310 38053 ft 378 kts 200°
2026-05-09 11:08 22.26183 -12.59679 38043 ft 375 kts 199°
2026-05-09 11:08 22.21122 -12.61046 38047 ft 373 kts 200°
2026-05-09 11:09 22.16101 -12.62402 38046 ft 370 kts 199°
2026-05-09 11:09 22.11140 -12.63740 38047 ft 368 kts 200°
2026-05-09 11:10 22.06178 -12.65077 37994 ft 367 kts 200°
2026-05-09 11:10 22.01214 -12.66416 37936 ft 366 kts 200°
2026-05-09 11:11 21.96296 -12.67739 37888 ft 366 kts 200°
2026-05-09 11:11 21.91338 -12.69074 37771 ft 367 kts 199°
2026-05-09 11:12 21.86389 -12.70403 37762 ft 365 kts 199°
2026-05-09 11:12 21.81472 -12.71724 37695 ft 365 kts 199°
2026-05-09 11:13 21.76541 -12.73048 37669 ft 364 kts 199°
2026-05-09 11:13 21.71643 -12.74361 37622 ft 365 kts 199°
2026-05-09 11:14 21.66716 -12.75682 37587 ft 364 kts 199°
2026-05-09 11:14 21.61824 -12.76992 37533 ft 364 kts 199°
2026-05-09 11:15 21.56884 -12.78315 37453 ft 365 kts 199°
2026-05-09 11:15 21.51957 -12.79632 37459 ft 364 kts 199°
2026-05-09 11:16 21.47062 -12.80940 37435 ft 364 kts 199°
2026-05-09 11:16 21.42142 -12.82254 37403 ft 364 kts 199°
2026-05-09 11:17 21.37253 -12.83559 37379 ft 364 kts 199°
2026-05-09 11:17 21.32338 -12.84870 37357 ft 363 kts 199°
2026-05-09 11:18 21.27422 -12.86180 37282 ft 364 kts 198°
2026-05-09 11:18 21.22520 -12.87486 37262 ft 364 kts 198°
2026-05-09 11:19 21.17603 -12.88794 37257 ft 363 kts 198°
2026-05-09 11:19 21.12683 -12.90103 37235 ft 364 kts 198°
2026-05-09 11:20 21.07801 -12.91400 37233 ft 363 kts 198°
2026-05-09 11:20 21.02880 -12.92708 37204 ft 363 kts 198°
2026-05-09 11:21 20.97950 -12.94017 37368 ft 366 kts 198°
2026-05-09 11:21 20.95476 -12.94674 37629 ft 366 kts 198°
2026-05-09 11:21 20.93024 -12.95324 37824 ft 368 kts 198°
2026-05-09 11:22 20.87969 -12.96666 37994 ft 378 kts 198°
2026-05-09 11:22 20.82798 -12.98039 38040 ft 392 kts 198°
2026-05-09 11:23 20.77396 -12.99470 38038 ft 408 kts 198°
2026-05-09 11:23 20.71767 -13.00958 38032 ft 424 kts 198°
2026-05-09 11:24 20.65966 -13.02490 38036 ft 438 kts 198°
2026-05-09 11:24 20.59944 -13.04079 38021 ft 453 kts 197°
2026-05-09 11:25 20.53752 -13.05761 38019 ft 463 kts 201°
2026-05-09 11:25 20.47826 -13.08563 38012 ft 468 kts 212°
2026-05-09 11:26 20.42477 -13.12466 38010 ft 469 kts 219°
2026-05-09 11:26 20.37250 -13.16643 38006 ft 470 kts 219°
2026-05-09 11:27 20.32002 -13.20821 37993 ft 469 kts 219°
2026-05-09 11:27 20.26751 -13.24960 37989 ft 468 kts 218°
2026-05-09 11:28 20.21545 -13.29040 37984 ft 467 kts 218°
2026-05-09 11:28 20.16301 -13.33144 37987 ft 466 kts 218°
2026-05-09 11:29 20.11073 -13.37233 37989 ft 466 kts 218°
2026-05-09 11:29 20.05881 -13.41292 37995 ft 465 kts 218°
2026-05-09 11:30 20.00649 -13.45380 37980 ft 466 kts 218°
2026-05-09 11:30 19.95419 -13.49461 37992 ft 466 kts 218°
2026-05-09 11:31 19.90218 -13.53518 37986 ft 466 kts 218°
2026-05-09 11:31 19.84976 -13.57602 37985 ft 467 kts 218°
2026-05-09 11:32 19.79714 -13.61698 37984 ft 468 kts 218°
2026-05-09 11:32 19.74478 -13.65772 37981 ft 469 kts 218°
2026-05-09 11:33 19.69197 -13.69876 37986 ft 469 kts 218°
2026-05-09 11:33 19.61304 -13.76004 37979 ft 470 kts 218°
2026-05-09 11:34 19.56020 -13.80103 37979 ft 470 kts 218°
2026-05-09 11:34 19.50765 -13.84175 37983 ft 470 kts 218°
2026-05-09 11:35 19.45477 -13.88269 37981 ft 470 kts 218°
2026-05-09 11:35 19.40184 -13.92365 37981 ft 470 kts 218°
2026-05-09 11:36 19.34889 -13.96458 37977 ft 470 kts 218°
2026-05-09 11:36 19.29623 -14.00526 37977 ft 470 kts 218°
2026-05-09 11:37 19.24328 -14.04612 37965 ft 470 kts 218°
2026-05-09 11:37 19.19060 -14.08674 37977 ft 470 kts 218°
2026-05-09 11:38 19.13769 -14.12751 37973 ft 471 kts 218°
2026-05-09 11:38 19.08459 -14.16839 37971 ft 471 kts 218°
2026-05-09 11:39 19.03175 -14.20905 37973 ft 471 kts 218°
2026-05-09 11:40 18.95242 -14.27001 37961 ft 471 kts 217°
2026-05-09 11:40 18.89925 -14.31082 37965 ft 471 kts 217°
2026-05-09 11:41 18.85512 -14.34468 37964 ft 471 kts 217°
2026-05-09 11:41 18.79330 -14.39207 37970 ft 471 kts 217°
2026-05-09 11:42 18.74924 -14.42582 37970 ft 471 kts 217°
2026-05-09 11:42 18.69610 -14.46649 37969 ft 471 kts 217°
2026-05-09 11:43 18.64331 -14.50687 37973 ft 471 kts 217°
2026-05-09 11:43 18.59025 -14.54741 37970 ft 471 kts 217°
2026-05-09 11:44 18.53712 -14.58799 37960 ft 470 kts 217°
2026-05-09 11:44 18.48409 -14.62845 37966 ft 469 kts 217°
2026-05-09 11:45 18.43148 -14.66856 37965 ft 469 kts 217°
2026-05-09 11:45 18.37860 -14.70884 37968 ft 468 kts 217°
2026-05-09 11:46 18.32567 -14.74913 37968 ft 468 kts 217°
2026-05-09 11:46 18.27322 -14.78903 37970 ft 468 kts 217°
2026-05-09 11:47 18.22032 -14.82924 37970 ft 468 kts 217°
2026-05-09 11:47 18.16746 -14.86939 37963 ft 468 kts 217°
2026-05-09 11:48 18.11496 -14.90923 37969 ft 467 kts 217°
2026-05-09 11:48 18.06207 -14.94934 37971 ft 467 kts 217°
2026-05-09 11:49 18.00963 -14.98909 37971 ft 467 kts 217°
2026-05-09 11:49 17.95678 -15.02911 37971 ft 468 kts 217°
2026-05-09 11:50 17.90389 -15.06914 37975 ft 468 kts 217°
2026-05-09 11:50 17.85131 -15.10890 37973 ft 468 kts 217°
2026-05-09 11:51 17.79836 -15.14887 37983 ft 468 kts 217°
2026-05-09 11:51 17.74541 -15.18880 37964 ft 468 kts 217°
2026-05-09 11:52 17.69280 -15.22847 37960 ft 468 kts 217°
2026-05-09 11:52 17.63986 -15.26835 37966 ft 468 kts 217°
2026-05-09 11:53 17.58692 -15.30833 37976 ft 468 kts 217°
2026-05-09 11:53 17.53444 -15.34802 37977 ft 468 kts 217°
2026-05-09 11:54 17.48148 -15.38792 37980 ft 468 kts 217°
2026-05-09 11:54 17.42882 -15.42752 37967 ft 467 kts 217°
2026-05-09 11:55 17.37583 -15.46736 37965 ft 468 kts 217°
2026-05-09 11:56 17.21731 -15.58639 37969 ft 468 kts 217°
2026-05-09 11:57 17.16462 -15.62587 37964 ft 468 kts 217°
2026-05-09 11:57 17.11157 -15.66563 37982 ft 468 kts 217°
2026-05-09 11:58 17.05898 -15.70508 37980 ft 467 kts 217°
2026-05-09 11:58 17.00623 -15.74468 37981 ft 466 kts 217°
2026-05-09 11:59 16.95345 -15.78423 37982 ft 466 kts 217°
2026-05-09 11:59 16.90070 -15.82371 37966 ft 466 kts 217°
2026-05-09 12:00 16.84832 -15.86290 37978 ft 465 kts 217°
2026-05-09 12:00 16.79565 -15.90226 37984 ft 465 kts 217°
2026-05-09 12:01 16.74323 -15.94141 37984 ft 464 kts 218°
2026-05-09 12:01 16.69069 -15.98062 37983 ft 462 kts 218°
2026-05-09 12:02 16.63841 -16.01961 37982 ft 460 kts 217°
2026-05-09 12:02 16.58655 -16.05826 37981 ft 460 kts 217°
2026-05-09 12:03 16.53450 -16.09702 37994 ft 460 kts 217°
2026-05-09 12:03 16.48236 -16.13584 37993 ft 460 kts 217°
2026-05-09 12:04 16.43042 -16.17447 37989 ft 461 kts 217°
2026-05-09 12:04 16.37814 -16.21329 38005 ft 460 kts 218°
2026-05-09 12:05 16.32598 -16.25199 37993 ft 459 kts 218°
2026-05-09 12:05 16.27403 -16.29051 37998 ft 457 kts 218°
2026-05-09 12:06 16.22252 -16.32868 37999 ft 456 kts 218°
2026-05-09 12:06 16.17069 -16.36706 38012 ft 456 kts 217°
2026-05-09 12:07 16.11880 -16.40544 38020 ft 456 kts 217°
2026-05-09 12:07 16.06725 -16.44355 38025 ft 457 kts 217°
2026-05-09 12:08 16.01374 -16.47961 38023 ft 459 kts 212°
2026-05-09 12:08 15.95734 -16.51079 38021 ft 458 kts 210°
2026-05-09 12:09 15.90122 -16.54141 38017 ft 457 kts 211°
2026-05-09 12:09 15.84524 -16.57274 38011 ft 456 kts 211°
2026-05-09 12:10 15.76158 -16.62018 37008 ft 458 kts 211°
2026-05-09 12:10 15.73368 -16.63601 36269 ft 457 kts 211°
2026-05-09 12:10 15.70578 -16.65181 35469 ft 457 kts 211°
2026-05-09 12:11 15.67812 -16.66748 34571 ft 460 kts 211°
2026-05-09 12:11 15.64982 -16.68350 33588 ft 463 kts 211°
2026-05-09 12:11 15.62132 -16.69962 32559 ft 466 kts 211°
2026-05-09 12:11 15.59306 -16.71560 31539 ft 469 kts 211°
2026-05-09 12:12 15.56425 -16.73189 30636 ft 471 kts 210°
2026-05-09 12:12 15.53551 -16.74812 29878 ft 469 kts 210°
2026-05-09 12:12 15.50691 -16.76426 28987 ft 467 kts 210°
2026-05-09 12:12 15.47820 -16.78047 27990 ft 469 kts 210°
2026-05-09 12:13 15.44958 -16.79662 27212 ft 466 kts 210°
2026-05-09 12:13 15.42115 -16.81266 26488 ft 462 kts 210°
2026-05-09 12:13 15.39334 -16.82834 25800 ft 458 kts 210°
2026-05-09 12:13 15.36538 -16.84410 25095 ft 455 kts 210°
2026-05-09 12:14 15.33763 -16.85976 24396 ft 452 kts 210°
2026-05-09 12:14 15.30981 -16.87481 23712 ft 449 kts 205°
2026-05-09 12:14 15.28049 -16.88467 22959 ft 448 kts 195°
2026-05-09 12:14 15.25021 -16.89153 22258 ft 443 kts 193°
2026-05-09 12:15 15.22012 -16.89803 21575 ft 439 kts 193°
2026-05-09 12:15 15.19032 -16.90466 20924 ft 435 kts 194°
2026-05-09 12:15 15.16084 -16.91149 20283 ft 432 kts 194°
2026-05-09 12:15 15.13164 -16.91848 19643 ft 428 kts 194°
2026-05-09 12:16 15.10305 -16.92544 19018 ft 426 kts 194°
2026-05-09 12:16 15.07409 -16.93254 18359 ft 425 kts 194°
2026-05-09 12:16 15.04530 -16.93960 17655 ft 423 kts 194°
2026-05-09 12:16 15.01672 -16.94660 16997 ft 420 kts 193°
2026-05-09 12:17 14.98869 -16.95345 16395 ft 416 kts 193°
2026-05-09 12:17 14.96047 -16.96035 15779 ft 413 kts 193°
2026-05-09 12:17 14.93257 -16.96717 15184 ft 410 kts 192°
2026-05-09 12:17 14.90496 -16.97295 14563 ft 399 kts 185°
2026-05-09 12:18 14.87726 -16.97335 13883 ft 398 kts 176°
2026-05-09 12:18 14.84984 -16.97200 13405 ft 390 kts 176°
2026-05-09 12:18 14.82317 -16.97116 12859 ft 386 kts 176°
2026-05-09 12:18 14.79633 -16.97076 12271 ft 383 kts 178°
2026-05-09 12:19 14.77017 -16.97056 12130 ft 368 kts 178°
2026-05-09 12:19 14.74507 -16.97039 12041 ft 353 kts 178°
2026-05-09 12:19 14.72098 -16.97024 11953 ft 339 kts 177°
2026-05-09 12:19 14.69773 -16.97006 11865 ft 326 kts 177°
2026-05-09 12:20 14.67577 -16.96989 11787 ft 314 kts 177°
2026-05-09 12:20 14.65423 -16.96970 11654 ft 304 kts 177°
2026-05-09 12:20 14.63330 -16.96951 11460 ft 298 kts 176°
2026-05-09 12:20 14.61264 -16.96932 11134 ft 296 kts 176°
2026-05-09 12:21 14.59204 -16.96912 10794 ft 295 kts 176°
2026-05-09 12:21 14.57155 -16.96892 10540 ft 291 kts 176°
2026-05-09 12:21 14.55162 -16.96874 10415 ft 282 kts 176°
2026-05-09 12:21 14.53247 -16.96857 10247 ft 272 kts 176°
2026-05-09 12:22 14.51391 -16.96840 9718 ft 264 kts 175°
2026-05-09 12:22 14.49550 -16.96820 8950 ft 265 kts 175°
2026-05-09 12:22 14.47703 -16.96800 8192 ft 265 kts 176°
2026-05-09 12:22 14.45854 -16.96783 7521 ft 265 kts 176°
2026-05-09 12:23 14.44017 -16.96767 6876 ft 262 kts 176°
2026-05-09 12:23 14.42232 -16.96752 6364 ft 256 kts 177°
2026-05-09 12:23 14.40466 -16.96791 5790 ft 254 kts 187°
2026-05-09 12:23 14.38869 -16.97537 5103 ft 257 kts 223°
2026-05-09 12:24 14.37927 -16.99073 4433 ft 254 kts 258°
2026-05-09 12:24 14.37743 -17.00846 4039 ft 247 kts 273°
2026-05-09 12:24 14.37737 -17.02652 3691 ft 256 kts 273°
2026-05-09 12:24 14.37827 -17.04490 3312 ft 254 kts 288°
2026-05-09 12:25 14.38644 -17.05984 3090 ft 236 kts 322°
2026-05-09 12:25 14.40006 -17.06784 3015 ft 220 kts 346°
2026-05-09 12:25 14.41508 -17.07045 2986 ft 221 kts
2026-05-09 12:25 14.43024 -17.07065 2969 ft 210 kts
2026-05-09 12:26 14.44423 -17.07042 2965 ft 192 kts
2026-05-09 12:26 14.45692 -17.07057 2969 ft 181 kts
2026-05-09 12:26 14.46948 -17.07075 2975 ft 182 kts
2026-05-09 12:26 14.48231 -17.07096 3015 ft 187 kts
2026-05-09 12:27 14.49509 -17.07113 3007 ft 176 kts
2026-05-09 12:27 14.50670 -17.07128 2965 ft 156 kts
2026-05-09 12:27 14.51690 -17.07135 2909 ft 145 kts
2026-05-09 12:27 14.52684 -17.07144 2710 ft 139 kts
2026-05-09 12:28 14.53646 -17.07152 2557 ft 140 kts
2026-05-09 12:28 14.54298 -17.07158 2446 ft 142 kts
2026-05-09 12:28 14.55276 -17.07171 2267 ft 138 kts
2026-05-09 12:28 14.56235 -17.07177 2065 ft 137 kts
2026-05-09 12:29 14.57170 -17.07188 1922 ft 132 kts
2026-05-09 12:29 14.58097 -17.07195 1751 ft 134 kts
2026-05-09 12:29 14.59034 -17.07205 1569 ft 133 kts
2026-05-09 12:29 14.59952 -17.07213 1373 ft 134 kts
2026-05-09 12:30 14.60876 -17.07219 1201 ft 130 kts
2026-05-09 12:30 14.61791 -17.07221 1074 ft 134 kts
2026-05-09 12:30 14.63677 -17.07248 696 ft 135 kts
2026-05-09 12:31 14.64593 -17.07261 544 ft 133 kts
2026-05-09 12:31 14.66408 -17.07273 306 ft 114 kts 359°
2026-05-09 12:31 14.67076 -17.07284 303 ft 78 kts 359°
2026-05-09 12:32 14.67437 -17.07287 299 ft 40 kts 359°
2026-05-09 12:32 14.67650 -17.07272 298 ft 25 kts 18°
2026-05-09 12:32 14.67767 -17.07208 296 ft 11 kts 32°
2026-05-09 12:32 14.67826 -17.07156 297 ft 11 kts 65°
2026-05-09 12:33 14.67809 -17.07113 298 ft 6 kts 153°
2026-05-09 12:33 14.67765 -17.07102 294 ft 7 kts 172°
2026-05-09 12:33 14.67717 -17.07100 294 ft 7 kts 179°
2026-05-09 12:33 14.67665 -17.07099 296 ft 8 kts 178°
2026-05-09 12:34 14.67609 -17.07096 299 ft 8 kts 178°
2026-05-09 12:34 14.67550 -17.07096 297 ft 9 kts 179°
2026-05-09 12:34 14.67485 -17.07095 296 ft 10 kts 180°
2026-05-09 12:34 14.67416 -17.07095 300 ft 10 kts 179°
2026-05-09 12:35 14.67339 -17.07095 300 ft 15 kts 179°
2026-05-09 12:35 14.67226 -17.07094 298 ft 15 kts 179°
2026-05-09 12:35 14.67131 -17.07093 299 ft 11 kts 178°
2026-05-09 12:35 14.67085 -17.07077 304 ft 4 kts 126°
2026-05-09 12:36 14.67079 -17.07044 302 ft 6 kts 97°
2026-05-09 12:36 14.67066 -17.06998 303 ft 7 kts 131°
2026-05-09 12:36 14.67020 -17.06980 302 ft 7 kts 168°
2026-05-09 12:36 14.66967 -17.06975 303 ft 8 kts 180°
2026-05-09 12:37 14.66916 -17.06972 302 ft 6 kts 156°
2026-05-09 12:37 14.66904 -17.06935 303 ft 6 kts 79°
2026-05-09 12:37 14.66931 -17.06899 302 ft 7 kts 41°
2026-05-09 12:37 14.66964 -17.06868 303 ft 5 kts 45°
2026-05-09 12:38 14.66981 -17.06846 303 ft 3 kts 56°
2026-05-09 12:38 14.66982 -17.06845 303 ft 0 kts 56°